Probability
0 0 0 0 0 0 0 0 0 0 0 0 0 0 0 0 0 0 0 0 0 0 0 0 0 0 0 0 0 0 0 0 0 0 0 0 0 0 0 0 0 0 0 0
0 0 0 0 0 0 0 0 0 0 0 0 0 0 0 0 0 0 0 0 0 0 0 0 0 0 0 0 0 0 0 0 0 0 0 0 0 0 0 0 0 0 0 0
0 0 0 0 0 0 0 0 0 0 0 0 0 0 0 0 0 0 0 0 0 0 0 0 0 0 0 0 0 0 0 0 0 0 0 0 0 0 0 0 0 0 0 0
0 0 0 0 0 0 0 0 0 0 0 0 0 0 0 0 0 0 0 0 0 0 0 0 0 0 0 0 0 0 0 0 0 0 0 0 0 0 0 0 0 0 0 0
0 0 0 0 0 0 0 0 0 0 0 0 0 0 0 0 0 0 0 0 0 0 0 0 0 0 0 0 0 0 0 0 0 0 0 0 0 0 0 0 0 0 0 0
0 0 0 0 0 0 0 0 0 0 0 0 0 0 0 0 0 0 0 0 0 0 0 0 0 0 0 0 0 0 0 0 0 0 0 0 0 0 0 0 0 0 0 0
0 0 0 0 0 0 0 0 0 0 0 0 0 0 0 0 0 0 0 0 0 0 0 0 0 0 0 0 0 0 0 0 0 0 0 0 0 0 0 0 0 0 0 0
0 0 0 0 0 0 0 0 0 0 0 0 0 0 0 0 0 0 0 0 0 0 0 0 0 0 0 0 0 0 0 0 0 0 0 0 0 0 0 0 0 0 0 0
0 0 0 0 0 0 0 0 0 0 0 0 0 0 0 0 0 0 0 0 0 0 0 0 0 0 0 0 0 0 0 0 0 0 0 0 0 0 0 0 0 0 0 0
0 0 0 0 0 0 0 0 0 0 0 0 0 0 0 0 0 0 0 0 0 0 0 0 0 0 0 0 0 0 0 0 0 0 0 0 0 0 0 0 0 0 0 0
0 0 0 0 0 0 0 0 0 0 0 0 0 0 0 0 0 0 0 0 0 0 0 0 0 0 0 0 0 0 0 0 0 0 0 0 0 0 0 0 0 0 0 0
0 0 0 0 0 0 0 0 0 0 0 0 0 0 0 0 0 0 0 0 0 0 0 0 0 0 0 0 0 0 0 0 0 0 0 0 0 0 0 0 0 0 0 0
0 0 0 0 0 0 0 0 0 0 0 0 0 0 0 0 0 0 0 0 0 0 0 0 0 0 0 0 0 0 0 0 0 0 0 0 0 0 0 0 0 0 0 0
0 0 0 0 0 0 0 0 0 0 0 0 0 0 0 0 0 0 0 0 0 0 0 0 0 0 0 0 0 0 0 0 0 0 0 0 0 0 0 0 0 0 0 0
0 0 0 0 0 0 0 0 0 0 0 0 0 0 0 0 0 0 0 0 0 0 0 0 0 0 0 0 0 0 0 0 0 0 0 0 0 0 0 0 0 0 0 0
0 0 0 0 0 0 0 0 0 0 0 0 0 0 0 0 0 0 0 0 0 0 0 0 0 0 0 0 0 0 0 0 0 0 0 0 0 0 0 0 0 0 0 0
0 0 0 0 0 0 0 0 0 0 0 0 0 0 0 0 0 0 0 0 0 0 0 0 0 0 0 0 0 0 0 0 0 0 0 0 0 0 0 0 0 0 0 0
0 0 0 0 0 0 0 0 0 0 0 0 0 0 0 0 0 0 0 0 0 0 0 0 0 0 0 0 0 0 0 0 0 0 0 0 0 0 0 0 0 0 0 0
0 0 0 0 0 0 0 0 0 0 0 0 0 0 0 0 0 0 0 0 0 0 0 0 0 0 0 0 0 0 0 0 0 0 0 0 0 0 0 0 0 0 0 0
0 0 0 0 0 0 0 0 0 0 0 0 0 0 0 0 0 0 0 0 0 0 0 0 0 0 0 0 0 0 0 0 0 0 0 0 0 0 0 0 0 0 0 0
0 0 0 0 0 0 0 0 0 0 0 0 0 0 0 0 0 0 0 0 0 0 0 0 0 0 0 0 0 0 0 0 0 0 0 0 0 0 0 0 0 0 0 0
0 0 0 0 0 0 0 0 0 0 0 0 0 0 0 0 0 0 0 0 0 0 0 0 0 0 0 0 0 0 0 0 0 0 0 0 0 0 0 0 0 0 0 0
0 0 0 0 0 0 0 0 0 0 0 0 0 0 0 0 0 0 0 0 0 0 0 0 0 0 0 0 0 0 0 0 0 0 0 0 0 0 0 0 0 0 0 0
0 0 0 0 0 0 0 0 0 0 0 0 0 0 0 0 0 0 0 0 0 0 0 0 0 0 0 0 0 0 0 0 0 0 0 0 0 0 0 0 0 0 0 0
0 0 0 0 0 0 0 0 0 0 0 0 0 0 0 0 0 0 0 0 0 0 0 0 0 0 0 0 0 0 0 0 0 0 0 0 0 0 0 0 0 0 0 0
0 0 0 0 0 0 0 0 0 0 0 0 0 0 0 0 0 0 0 0 0 0 0 0 0 0 0 0 0 0 0 0 0 0 0 0 0 0 0 0 0 0 0 0
0 0 0 0 0 0 0 0 0 0 0 0 0 0 0 0 0 0 0 0 0 0 0 0 0 0 0 0 0 0 0 0 0 0 0 0 0 0 0 0 0 0 0 0
Wind_Speed
6 2 6 9 12 14 16 13 10 7 7 7 6 9 11 14 15 15 16 16 15 14 13 12 12 11 11 10 9 9 9 8 7 6 5 5 5 4 3 3 3 3 2 3
6 5 8 9 11 14 15 15 14 12 11 7 5 7 11 14 16 17 17 17 16 15 15 15 14 12 12 11 10 10 9 8 7 7 7 6 5 5 4 3 3 3 2 3
6 4 5 10 12 14 14 13 13 14 11 6 6 10 13 15 17 18 18 18 17 17 16 15 15 14 13 12 11 10 9 9 8 7 7 6 6 5 5 4 3 3 2 2
4 5 9 3 1 7 11 13 13 12 10 8 8 8 9 13 16 17 17 17 17 16 15 14 14 13 12 12 12 11 10 9 9 8 7 7 6 6 5 4 4 3 2 2
5 7 7 5 4 6 8 9 10 13 12 8 4 5 8 12 14 15 16 16 15 15 15 15 15 14 14 13 12 11 10 10 9 9 8 7 7 6 5 4 4 4 3 2
6 6 6 2 3 4 5 6 4 7 9 7 8 8 7 10 13 13 13 13 13 14 15 15 15 14 14 14 13 12 11 10 9 9 8 8 7 6 5 4 4 3 3 2
9 8 6 1 5 6 6 1 1 3 5 8 10 7 2 7 10 12 13 13 14 14 14 14 15 15 15 14 13 11 10 10 9 9 8 7 6 6 5 5 4 4 4 3
7 8 5 4 7 6 3 4 2 3 3 6 8 4 3 6 9 11 13 14 15 14 13 13 14 15 15 13 11 11 10 10 9 8 7 7 7 6 6 5 5 5 4 4
6 3 2 3 4 3 5 5 4 3 3 4 5 5 5 6 8 11 13 13 13 14 13 13 14 14 14 12 11 12 11 10 9 9 7 7 7 7 6 6 5 5 4 4
6 5 4 4 5 6 6 6 5 5 4 4 5 4 5 6 8 10 12 13 13 14 14 13 14 13 12 12 12 12 12 11 9 9 8 8 6 6 6 6 5 5 5 4
6 5 4 3 4 4 4 5 4 3 3 3 4 4 5 6 8 9 10 11 12 13 13 14 13 13 12 12 12 12 11 10 9 8 8 7 7 5 6 5 4 4 4 4
5 3 4 3 4 4 4 4 3 2 1 2 3 4 5 5 6 8 10 10 11 12 12 12 13 13 12 12 12 12 10 10 8 7 7 6 6 6 4 5 3 5 5 5
6 4 5 5 5 4 4 3 2 1 1 1 2 3 4 5 5 7 9 10 11 11 11 12 12 12 12 12 12 12 11 9 7 7 7 7 7 6 6 6 7 8 8 8
5 4 5 4 4 4 3 3 2 1 0 1 2 3 4 4 5 7 8 9 9 10 10 11 11 11 11 12 12 12 10 9 8 7 7 7 7 7 6 6 6 6 8 10
5 6 5 4 4 3 2 1 1 1 0 1 2 3 4 5 5 6 6 7 8 9 9 10 10 11 11 12 12 12 10 7 7 7 7 7 6 6 6 7 6 5 5 6
5 4 4 5 4 3 2 2 2 2 1 2 2 2 3 4 4 4 6 7 8 9 9 9 10 10 11 11 11 9 8 8 8 7 7 7 7 7 7 7 7 6 6 6
5 4 4 4 4 4 4 3 3 3 2 2 2 2 3 4 5 5 6 7 7 7 8 8 8 9 10 11 10 8 8 8 10 8 7 7 7 8 7 7 7 7 7 6
5 5 5 5 5 4 4 3 3 3 3 2 2 3 4 5 5 5 6 6 6 6 6 7 7 8 9 10 9 8 8 8 8 9 8 8 8 8 8 8 8 9 7 6
3 3 3 3 3 3 3 3 3 2 2 2 3 4 4 4 4 4 5 6 6 6 5 6 7 8 9 9 8 7 8 8 8 8 8 8 9 9 8 8 8 8 8 7
2 2 2 2 2 1 1 1 1 1 1 2 3 3 4 4 4 4 5 5 4 3 3 4 6 7 7 8 9 7 8 9 9 8 8 8 9 9 9 9 9 9 8 8
1 1 1 1 1 1 1 1 0 1 1 2 3 3 3 3 4 4 4 3 2 2 3 4 5 5 5 6 9 7 8 8 8 8 8 8 9 9 9 9 9 9 8 8
1 1 1 1 1 1 1 1 0 1 1 2 2 2 2 3 3 3 3 2 1 2 2 3 4 4 4 6 6 7 7 8 8 7 8 8 8 8 8 9 8 8 8 8
2 1 1 1 1 1 1 0 0 1 1 1 1 1 2 1 2 2 2 1 1 2 3 3 3 4 6 6 6 7 8 8 8 8 8 8 8 8 8 9 8 8 8 8
2 2 2 1 1 0 0 0 0 0 0 0 1 1 1 1 1 1 1 1 2 3 3 3 5 6 7 6 6 6 7 7 7 7 8 7 7 7 7 7 7 7 8 9
2 2 2 1 1 1 1 0 0 0 0 0 1 1 1 1 1 2 2 2 2 3 3 4 5 7 6 6 6 7 7 7 6 6 7 7 7 7 7 7 7 7 7 8
2 2 1 1 1 1 1 1 1 1 1 1 1 1 2 2 2 2 2 3 3 4 4 3 4 5 5 5 6 6 6 6 6 7 7 7 8 7 7 7 9 7 7 8
2 2 1 1 1 1 1 1 1 2 2 2 2 2 2 2 3 3 3 3 3 3 3 3 4 4 4 5 5 6 6 6 6 6 6 6 6 6 7 8 7 7 7 8
Wind_Direction
257 241 210 219 211 207 220 234 251 259 263 259 220 192 184 179 177 176 178 178 177 175 171 169 168 170 164 162 164 166 168 168 165 160 153 149 141 142 138 130 121 106 93 81
235 217 222 234 229 220 226 238 246 261 269 267 233 194 185 183 181 184 184 184 181 179 175 174 171 171 166 165 167 169 168 166 160 165 158 159 151 149 145 138 126 115 99 78
238 192 219 239 231 224 221 225 233 244 250 233 208 199 195 189 189 191 188 185 183 182 181 177 175 173 171 168 166 171 170 165 164 168 163 163 155 153 153 151 139 129 109 98
245 214 242 249 138 226 231 238 236 249 256 243 230 215 207 198 194 194 189 186 185 183 180 176 172 171 166 165 169 173 172 169 169 170 167 165 166 166 167 162 156 154 137 131
237 246 262 262 218 205 220 246 238 239 247 242 204 192 209 204 202 198 191 187 183 182 177 173 171 170 168 170 173 175 175 174 174 175 173 174 176 176 171 170 168 167 159 177
229 243 250 261 124 173 221 246 235 231 235 210 180 209 207 183 194 194 187 181 176 174 173 172 171 170 174 175 177 180 176 175 174 176 176 178 180 178 171 175 177 177 174 187
234 246 256 318 127 173 222 303 21 238 227 195 202 228 156 159 179 182 178 173 169 170 173 172 170 174 179 179 181 174 168 169 171 177 179 178 177 178 178 181 187 194 185 191
221 233 242 126 162 207 308 0 327 277 246 218 223 231 166 161 167 170 169 168 169 170 170 168 172 178 181 182 172 163 164 169 172 176 177 175 177 182 185 186 193 202 207 204
231 252 29 165 224 295 324 308 310 294 272 243 230 216 192 174 167 169 168 168 170 170 167 169 177 183 183 175 165 164 167 171 175 176 179 181 182 184 188 195 207 211 214 219
242 257 265 259 267 273 275 281 301 300 278 235 221 202 184 174 168 168 169 168 169 170 172 173 178 184 182 167 168 171 174 176 178 181 179 183 188 194 196 201 209 216 219 225
244 266 267 252 257 281 282 280 286 286 264 237 210 190 180 174 171 171 169 169 172 177 178 176 175 180 178 170 172 176 177 179 181 184 184 188 190 199 207 209 219 225 226 228
255 293 288 312 350 325 294 289 289 278 249 212 200 186 177 174 170 170 170 171 175 180 180 177 175 178 176 175 177 179 180 182 184 184 187 191 193 193 207 229 210 228 248 258
287 314 297 307 315 317 302 304 301 273 246 198 183 176 172 165 167 169 172 176 180 181 180 176 175 178 177 178 181 185 185 184 184 187 188 194 197 202 202 204 215 224 228 234
265 272 269 282 299 312 314 315 301 275 240 183 162 160 160 158 163 172 178 180 179 178 179 178 178 180 178 178 182 188 188 184 186 190 194 199 202 206 211 211 208 214 215 219
254 255 270 289 291 295 301 282 245 244 183 155 157 164 166 168 171 175 174 170 171 176 180 180 182 182 178 179 183 188 188 187 191 195 197 202 204 208 212 217 223 224 224 207
267 256 254 254 260 265 260 243 234 238 224 189 184 183 180 177 169 163 165 168 173 181 184 185 189 185 180 182 185 189 191 187 189 194 197 200 205 211 216 220 225 228 230 233
261 255 258 258 262 265 262 256 249 239 226 210 202 186 170 164 163 166 170 176 182 184 185 188 190 184 184 186 188 191 192 188 190 202 206 207 211 217 222 226 230 234 237 232
274 277 276 269 266 266 269 266 254 240 228 213 187 176 176 178 179 177 173 171 174 181 188 191 189 187 188 191 193 197 197 197 199 207 211 215 218 221 225 229 233 238 242 229
265 277 287 286 283 266 259 260 255 243 222 198 186 184 184 187 182 175 169 170 177 186 191 191 188 194 195 194 194 200 204 205 207 212 215 213 219 226 228 231 236 240 242 243
285 292 303 311 313 301 285 274 258 228 196 183 179 180 184 185 177 172 174 181 190 193 187 182 189 197 200 195 193 206 210 213 216 217 220 222 224 229 232 235 239 242 244 245
316 320 324 326 329 327 320 314 195 186 179 174 173 179 183 181 180 179 179 188 190 188 187 180 195 199 201 193 195 213 216 220 223 225 225 227 231 233 236 239 242 245 248 250
313 326 331 329 333 339 352 2 72 129 139 153 163 162 162 170 180 194 200 204 188 179 201 203 209 203 202 203 210 218 222 224 227 229 231 233 236 238 240 244 246 249 251 253
294 297 311 317 312 321 345 18 102 128 138 143 149 163 178 191 198 205 227 221 218 211 227 227 220 206 209 219 225 227 229 231 233 235 236 238 240 243 245 247 249 252 254 254
306 308 306 303 296 268 260 1 2 296 194 210 199 207 224 235 253 266 278 226 228 231 240 225 211 214 221 232 236 237 237 237 239 241 242 241 241 244 246 249 250 253 254 254
300 299 298 292 272 254 228 186 187 174 214 319 323 326 311 297 290 296 286 277 272 256 256 237 225 228 233 237 237 238 240 242 245 248 246 245 243 243 244 245 248 251 253 254
313 306 294 285 294 287 267 237 245 272 282 302 323 330 331 327 310 294 285 279 276 269 263 252 239 234 241 243 244 246 248 248 245 246 249 250 249 249 248 248 250 251 253 255
318 309 302 306 306 296 288 278 272 277 281 279 290 303 307 306 300 293 288 282 275 271 270 264 258 254 252 250 251 253 252 251 250 249 249 249 252 253 253 253 254 255 256 257